Date String (YYYY-MM-DD hh:mm:ss) UTC,Instrument flags,Ambient pressure (hPa),Sample flow (lpm),Bypass flow (lpm),Sample temperature (°C),Ambient temperature (°C),ASC tube jacket temperature (°C),LED temperature (°C),Box temperature (°C),Sample RH (%),Span deviation,Mass concentration (μg/m³),Mass concentration (μg/m³),Mass concentration (μg/m³)
DateTimeUTC,F1_M11,P_M11,Q1_M11,Q2_M11,T1_M11,T2_M11,T3_M11,T4_M11,T5_M11,U1_M11,ZSPAN_M11,X0_M11,X2_M11,X1_M11
2022-08-08 10:00:00,,0832.3,4.99,0.00,32.0,28.5,00.0,40.1,32.4,33.9,0000.0,0013.30,0005.75,0004.81
2022-08-08 10:01:00,,0832.3,5.00,0.00,31.9,28.6,00.0,40.1,32.4,33.8,0000.0,0012.47,0005.68,0004.74
2022-08-08 10:02:00,,0832.3,5.00,0.00,31.9,28.7,00.0,40.1,32.5,33.7,0000.0,0012.61,0005.61,0004.68
2022-08-08 10:03:00,,0832.3,5.00,0.00,31.8,28.8,00.0,40.1,32.5,33.7,0000.0,0011.73,0005.48,0004.61
2022-08-08 10:04:00,,0832.3,5.00,0.00,31.8,28.9,00.0,40.1,32.5,33.6,0000.0,0011.31,0005.33,0004.54
2022-08-08 10:05:00,,0832.3,5.00,0.00,31.8,28.9,00.0,40.1,32.5,33.6,0000.0,0011.09,0005.22,0004.47
2022-08-08 10:06:00,,0832.3,5.00,0.00,31.7,29.0,00.0,40.1,32.5,33.6,0000.0,0010.24,0005.14,0004.41
2022-08-08 10:07:00,,0832.3,5.00,0.00,31.7,29.0,00.0,40.1,32.5,33.8,0000.0,0010.18,0005.07,0004.37
2022-08-08 10:08:00,,0832.4,5.00,0.00,31.6,29.1,00.0,40.1,32.5,34.0,0000.0,0009.55,0005.02,0004.34
2022-08-08 10:09:00,,0832.3,5.00,0.00,31.6,29.1,00.0,40.1,32.5,34.0,0000.0,0009.42,0004.96,0004.31
2022-08-08 10:10:00,,0832.3,4.99,0.00,31.6,29.1,00.0,40.1,32.5,34.0,0000.0,0009.17,0004.92,0004.30
2022-08-08 10:11:00,,0832.3,5.00,0.00,31.5,29.2,00.0,40.1,32.6,34.2,0000.0,0009.15,0004.91,0004.30
2022-08-08 10:12:00,,0832.3,5.00,0.00,31.5,29.2,00.0,40.1,32.6,34.4,0000.0,0009.13,0004.93,0004.33
2022-08-08 10:13:00,,0832.3,5.00,0.00,31.5,29.2,00.0,40.1,32.6,34.6,0000.0,0008.67,0004.97,0004.37
2022-08-08 10:14:00,,0832.4,5.00,0.00,31.5,29.3,00.0,40.0,32.6,34.8,0000.0,0008.54,0005.03,0004.41
2022-08-08 10:15:00,,0832.3,5.00,0.00,31.4,29.3,00.0,40.0,32.6,34.8,0000.0,0008.61,0005.10,0004.47
2022-08-08 10:16:00,,0832.3,5.00,0.00,31.4,29.3,00.0,40.0,32.6,34.8,0000.0,0008.94,0005.17,0004.53
2022-08-08 10:17:00,,0832.3,5.00,0.00,31.4,29.3,00.0,40.0,32.6,34.9,0000.0,0009.33,0005.28,0004.58
2022-08-08 10:18:00,,0832.3,5.00,0.00,31.4,29.3,00.0,40.0,32.6,35.1,0000.0,0009.60,0005.40,0004.64
2022-08-08 10:19:00,,0832.3,5.00,0.00,31.5,28.6,00.0,39.9,32.5,34.9,0000.0,0009.93,0005.52,0004.69
2022-08-08 10:20:00,,0832.3,4.99,0.00,31.6,28.0,00.0,39.9,32.5,34.1,0000.0,0010.55,0005.53,0004.70
2022-08-08 10:21:00,,0832.3,5.00,0.00,31.6,27.8,00.0,39.8,32.3,34.2,0000.0,0010.90,0005.51,0004.71
2022-08-08 10:22:00,,0832.3,4.99,0.00,31.5,27.8,00.0,39.8,32.2,34.3,0000.0,0010.84,0005.53,0004.73
2022-08-08 10:23:00,,0832.3,5.00,0.00,31.5,27.9,00.0,39.8,32.2,34.7,0000.0,0010.71,0005.51,0004.75
2022-08-08 10:24:00,,0832.3,5.00,0.00,31.4,28.0,00.0,39.8,32.2,34.8,0000.0,0010.67,0005.49,0004.76
2022-08-08 10:25:00,,0832.2,4.99,0.00,31.4,28.2,00.0,39.8,32.2,34.9,0000.0,0010.73,0005.49,0004.76
2022-08-08 10:26:00,,0832.3,5.00,0.00,31.3,28.3,00.0,39.8,32.2,35.1,0000.0,0010.66,0005.49,0004.77
2022-08-08 10:27:00,,0832.2,5.00,0.00,31.5,28.4,00.0,39.8,32.3,34.8,0000.0,0010.45,0005.48,0004.77
2022-08-08 10:28:00,,0832.3,5.00,0.00,31.6,28.5,00.0,39.8,32.4,34.4,0000.0,0010.10,0005.41,0004.76
2022-08-08 10:29:00,,0832.3,5.00,0.00,31.6,28.6,00.0,39.8,32.4,34.2,0000.0,0009.85,0005.31,0004.72
2022-08-08 10:30:00,,0832.3,5.00,0.00,31.6,28.7,00.0,39.8,32.3,34.2,0000.0,0009.60,0005.22,0004.70
2022-08-08 10:31:00,,0832.2,5.01,0.00,31.6,28.8,00.0,39.8,32.3,34.2,0000.0,0009.10,0005.23,0004.70
2022-08-08 10:32:00,,0832.3,4.99,0.00,31.6,28.8,00.0,39.8,32.4,34.2,0000.0,0009.23,0005.27,0004.71
2022-08-08 10:33:00,,0832.2,5.00,0.00,31.5,28.9,00.0,39.9,32.4,34.1,-000.3,0009.24,0005.27,0004.70
2022-08-08 10:34:00,,0832.3,5.00,0.00,31.5,29.0,00.0,39.9,32.4,34.0,-000.2,0009.21,0005.25,0004.68
2022-08-08 10:35:00,,0832.3,5.00,0.00,31.5,29.0,00.0,39.9,32.4,33.9,0000.0,0009.59,0005.22,0004.64
2022-08-08 10:36:00,,0832.3,5.01,0.00,31.5,29.1,00.0,39.9,32.4,33.8,0000.0,0009.91,0005.14,0004.58
2022-08-08 10:37:00,,0832.3,5.01,0.00,31.4,29.1,00.0,39.9,32.5,33.7,0000.0,0009.97,0005.09,0004.53
2022-08-08 10:38:00,,0832.3,4.99,0.00,31.4,29.1,00.0,39.9,32.5,33.7,0000.0,0010.22,0005.03,0004.47
2022-08-08 10:39:00,,0832.3,5.00,0.00,31.4,29.2,00.0,39.9,32.5,33.5,0000.0,0010.25,0004.98,0004.42
2022-08-08 10:40:00,,0832.3,5.00,0.00,31.4,29.2,00.0,39.9,32.5,33.3,0000.0,0010.38,0004.94,0004.37
2022-08-08 10:41:00,,0832.3,5.01,0.00,31.3,29.2,00.0,39.9,32.5,33.1,0000.0,0010.50,0004.92,0004.32
2022-08-08 10:42:00,,0832.3,5.00,0.00,31.3,29.3,00.0,39.9,32.5,33.1,0000.0,0010.49,0004.89,0004.26
2022-08-08 10:43:00,,0832.3,5.00,0.00,31.3,29.3,00.0,39.9,32.5,33.0,0000.0,0009.83,0004.83,0004.21
2022-08-08 10:44:00,,0832.3,4.99,0.00,31.3,29.3,00.0,39.9,32.5,33.0,0000.0,0009.48,0004.74,0004.15
2022-08-08 10:45:00,,0832.3,5.00,0.00,31.3,29.3,00.0,39.9,32.5,32.9,0000.0,0009.64,0004.74,0004.11
2022-08-08 10:46:00,,0832.3,5.00,0.00,31.2,29.2,00.0,39.9,32.5,32.8,0000.0,0009.48,0004.74,0004.09
2022-08-08 10:47:00,,0832.3,5.01,0.00,31.2,28.4,00.0,39.8,32.3,32.8,0000.0,0009.33,0004.79,0004.07
2022-08-08 10:48:00,,0832.3,5.00,0.00,31.1,27.9,00.0,39.7,32.2,33.3,0000.0,0009.17,0004.75,0004.04
2022-08-08 10:49:00,,0832.3,4.99,0.00,31.0,27.8,00.0,39.7,32.0,33.2,0000.0,0008.93,0004.75,0004.03
2022-08-08 10:50:00,,0832.3,5.01,0.00,30.8,27.8,00.0,39.7,32.0,33.3,0000.0,0008.89,0004.74,0004.02
2022-08-08 10:51:00,,0832.3,5.00,0.00,30.8,27.9,00.0,39.6,32.0,33.3,0000.0,0008.80,0004.78,0004.02
2022-08-08 10:52:00,,0832.2,5.00,0.00,30.7,28.1,00.0,39.6,32.0,33.2,0000.0,0008.64,0004.75,0004.02
2022-08-08 10:53:00,,0832.2,5.00,0.00,30.7,28.2,00.0,39.5,32.0,33.3,0000.0,0008.72,0004.75,0004.02
2022-08-08 10:54:00,,0832.3,5.01,0.00,30.7,28.3,00.0,39.5,32.0,33.4,0000.0,0008.88,0004.79,0004.02
2022-08-08 10:55:00,,0832.3,5.00,0.00,30.6,28.4,00.0,39.5,32.0,33.5,0000.0,0008.83,0004.77,0004.01
2022-08-08 10:56:00,,0832.3,5.00,0.00,30.6,28.5,00.0,39.4,32.1,33.7,0000.0,0008.51,0004.68,0004.01
2022-08-08 10:57:00,,0832.3,5.01,0.00,30.6,28.6,00.0,39.4,32.1,33.8,0000.0,0008.24,0004.62,0004.01
2022-08-08 10:58:00,,0832.2,5.00,0.00,30.6,28.7,00.0,39.4,32.1,33.8,0000.0,0008.77,0004.58,0004.01
2022-08-08 10:59:00,,0832.2,5.00,0.00,30.6,28.7,00.0,39.4,32.1,33.7,0000.0,0008.91,0004.59,0004.01
